STARLINK-1720 (46675 NORAD) Tracking and Keplerian Element Data
This shows tracking and keplerian element data for the satellite.
Feedback or suggestion? Click here.
Element | Value |
Catalog | 46675 |
Name | STARLINK-1720 |
Epoch Orbit | 179 |
Epoch Day | 17.91667824 |
Epoch Year | 2021 |
RAAN | 26.7661 |
Inclination | 53.0541 |
Eccentricity | 0.0001074 |
Argument of Perigee | 57.7913 |
Mean Anonmoly | 79.0045 |
Mean Motion | 15.06384419 |
Decay Rate | 0.00037184 |
L1 | 1 46675U 20073F 21017.91667824 .00037184 00000-0 25031-2 0 9990 |
L2 | 2 46675 53.0541 26.7661 0001074 57.7913 79.0045 15.06384419 1793 |
Live tracking and technical data element details for STARLINK-1720 (NORAD 46675). STARLINK-1720 can be tracked NOW for your location showing map with azimuth and elevation plus other details from your city location.
Track the satellite on the map from your city or location and see movement details for azimuth, elevation, latitude, longitude, range, height, and movement on the map or in text.
IsCatalogInMostPopularTable: catalog: 46675, numindb: 26
Update: records affected: 1
GetName: 46675 STARLINK-1720
Hit Count: updated at: Tue, 19 Jan 2021 02:57:15 GMT